Regional Weather Roundup
Issued by NWS State College, PA

Home | Current Version | Previous Version | Graphics & Text | Print | Product List | Glossary Off
Versions: 1 2 3 4 5 6 7 8 9 10 11 12 13 14 15 16 17 18 19 20 21 22 23 24 25 26 27 28 29 30 31 32 33 34 35 36 37 38 39 40 41 42 43 44 45 46 47 48 49 50

000
ASUS41 KCTP 241110
RWRCTP

REGIONAL WEATHER ROUNDUP
NATIONAL WEATHER SERVICE STATE COLLEGE PA
700 AM EDT FRI MAR 24 2017

Note: "fair" indicates few or no clouds below 12,000 feet with no
significant weather and/or obstructions to visibility.

* = STATION THAT DOES NOT REPORT PRECIPITATION /E.G. RAIN...SNOW...ETC/
    THUNDER OR FOG.

PAZ002>004-007>009-013>016-020>023-029>032-241200-
WESTERN PENNSYLVANIA

CITY           SKY/WX    TMP DP  RH WIND       PRES   REMARKS
ERIE           CLOUDY    45  35  68 S17G31    30.08F
MEADVILLE      CLOUDY    40  34  79 S9        30.13F
FRANKLIN*      CLOUDY    37  32  81 S15       30.17F
NEW CASTLE     LGT RAIN  40  38  93 VRB3      30.16F
BEAVER COUNTY  RAIN      43  39  87 SW16G22   30.16
BUTLER*        CLOUDY    39  34  81 S10       30.19F
PITTSBURGH INT LGT RAIN  40  38  93 S10       30.22S
PITTSBURGH     LGT RAIN  39  34  82 S13       30.24S
INDIANA*       CLOUDY    39  37  93 W5        30.27F FOG
LATROBE        LGT RAIN  41  39  93 SW9       30.28S
WASHINGTON CO* CLOUDY    39  36  87 SW3       30.28R
$$

PAZ004>006-010>012-017>019-024>028-033>037-041-042-045-046-049>053-241200-
CENTRAL PENNSYLVANIA

CITY           SKY/WX    TMP DP  RH WIND       PRES   REMARKS
BRADFORD       LGT RAIN  36  25  64 S10G20    30.16F
DUBOIS         CLOUDY    37  30  75 S6        30.20S
CLEARFIELD       N/A    N/A N/A N/A MISG      30.26R
JOHNSTOWN      RAIN      36  26  67 S9        30.25R
ALTOONA        LGT RAIN  39  22  50 W6        30.30R
STATE COLLEGE  DRIZZLE   37  16  41 SW6       30.29R
WILLIAMSPORT   CLOUDY    36  17  46 NE8       30.33R
SELINSGROVE    CLOUDY    36  20  52 SW7       30.36S
FT INDIANTOWN  CLOUDY    30  23  74 N3        30.40F
CAPITAL CITY   PTCLDY    35  19  52 VRB3      30.41R
HARRISBURG     CLOUDY    36  22  56 SE6       30.39F
YORK           PTCLDY    36  22  56 S6        30.38F
$$

PAZ038>040-043-044-047-048-054-055-060>062-067>071-241200-
EASTERN PENNSYLVANIA

CITY           SKY/WX    TMP DP  RH WIND       PRES   REMARKS
SCRANTON       CLOUDY    35  15  44 VRB6      30.33F
MOUNT POCONO   CLOUDY    28  13  53 S9        30.32S
ALLENTOWN      CLOUDY    33  14  45 CALM      30.42F
QUAKERTOWN*    CLOUDY    32  18  55 SW5       30.43F
READING        MOCLDY    35  22  58 S6        30.42S
LANCASTER      CLOUDY    31  24  75 SE8       30.41F
COATESVILLE    MOSUNNY   30  21  69 S5        30.44S
POTTSTOWN      PTCLDY    33  19  56 S5        30.45F
BLUE BELL      PTCLDY    32  21  64 S6        30.45F
DOYLESTOWN     CLOUDY    25  20  81 S3        30.43F
WILLOW GROVE   NOT AVBL
NORTH PHILA    CLOUDY    34  25  69 VRB5      30.49F
PHILADELPHIA   CLOUDY    33  24  69 S7        30.49F
$$




USA.gov is the U.S. government's official web portal to all federal, state and local government web resources and services.